Regional Weather Roundup
Issued by NWS

Home | Current Version | Previous Version | Text Only | Print | Product List | Glossary Off
Versions: 1 2 3 4 5 6 7 8 9 10 11 12 13 14 15 16 17 18 19 20 21 22 23 24 25 26 27 28 29 30 31 32 33 34 35 36 37 38 39 40 41 42 43 44 45 46 47 48 49 50

000
ASUS43 KFSD 012302
RWRSD

WEATHER ROUNDUP FOR SOUTH DAKOTA
NATIONAL WEATHER SERVICE SIOUX FALLS SD
600 PM CDT MON SEP 01 2014

NOTE: "FAIR" INDICATES FEW OR NO CLOUDS BELOW 12,000 FEET WITH NO
SIGNIFICANT WEATHER AND/OR OBSTRUCTIONS TO VISIBILITY.


SDZ001>005-009-010-012>017-020000-
NORTHWEST AND NORTH CENTRAL SOUTH DAKOTA

CITY           SKY/WX    TMP DP  RH WIND       PRES   REMARKS
BUFFALO          N/A     68  45  43 N9        29.84S
FAITH            N/A     65  49  56 W10       29.90R
MOBRIDGE       MOSUNNY   74  50  42 NW8       29.80R
$$

SDZ012>016-024>037-041>051-057-063-072>074-020000-
SOUTHWEST AND SOUTH CENTRAL SOUTH DAKOTA

CITY           SKY/WX    TMP DP  RH WIND       PRES   REMARKS
RAPID CTY ARPT PTSUNNY   66  49  54 NW10      29.95S
PIERRE         PTSUNNY   69  49  48 N16       29.82R
CUSTER         MOSUNNY   61  38  42 W13G20    30.02R
ELLSWORTH AFB  MOSUNNY   66  49  53 NW9       29.94S
PHILIP         LGT RAIN  61  52  72 N15       29.89R
PINE RIDGE     RAIN      55  52  89 MISG      29.91F FOG
$$

SDZ004>011-016>023-039-040-020000-
NORTHEAST SOUTH DAKOTA

CITY           SKY/WX    TMP DP  RH WIND       PRES   REMARKS
ABERDEEN       PTSUNNY   72  57  59 W6        29.78R
WATERTOWN      PTSUNNY   69  55  60 SW8       29.81R
SISSETON         N/A     76  53  44 NW9       29.75S
$$

SDZ017-020-022-023-036>040-048>070-020000-
SOUTHEAST SOUTH DAKOTA

CITY           SKY/WX    TMP DP  RH WIND       PRES   REMARKS
SIOUX FALLS    MOSUNNY   77  55  46 W5        29.83S
HURON          CLOUDY    65  52  62 N15G23    29.85R
CHAMBERLAIN    RAIN      65  53  64 N6        29.85F
MITCHELL       MOSUNNY   76  58  53 W3        29.84R
YANKTON        SUNNY     77  54  44 NW6       29.84R
$$

ABBREVIATIONS USED IN REMARKS
   TC - TEMPERATURE IN CELSIUS
  WCI - WIND CHILL INDEX
   HX - HEAT INDEX
  VSB - VISIBILITY




USA.gov is the U.S. government's official web portal to all federal, state and local government web resources and services.